Location: Burla
(50.9568°N, 10.4983°E)
Time: 11:12:11
(UTC+00:00)

GP-B - Pass Details

Date: 18 January 2026
Orbit: 618 x 622 km, 89.8° (Epoch: 16 February)

Event Time Altitude Azimuth Distance (km) Brightness Sun altitude
Rises 06:26:11 0° 5° (N) 2,910 6.3 -7.2°
Reaches altitude 10° 06:28:28 10° 10° (N) 1,998 5.5 -6.9°
Maximum altitude 06:32:45 50° 87° (E) 789 4.1 -6.2°
Drops below altitude 10° 06:36:59 10° 164° (SSE) 1,980 6.3 -5.6°
Sets 06:39:14 0° 169° (S) 2,880 7.1 -5.3°
